Wind_Speed
23 25 27 29 32 35 38 41 42 42 46 48 49 51 54 56 56 57 57 56 55 55 56 59 60 61 62 63 64 66 67 67 68 69 68 69 68 67 67 65 65 67 67
25 27 30 33 36 39 41 43 45 46 49 50 51 54 56 58 58 58 59 60 58 59 62 64 66 66 67 69 71 72 72 71 72 73 73 73 72 72 73 73 68 66 67
28 30 34 37 40 42 43 46 47 48 50 52 54 57 58 58 58 59 59 59 61 64 67 68 68 70 72 74 74 75 74 74 73 72 73 73 74 72 71 74 75 74 70
30 34 37 40 42 42 45 47 50 51 52 53 56 55 56 58 58 60 61 62 66 69 70 71 72 73 74 74 75 75 76 76 75 75 75 76 74 72 74 68 73 75 74
34 37 40 43 43 45 47 51 52 52 51 52 54 56 57 58 60 63 65 68 70 71 72 73 73 74 75 77 79 79 78 78 79 79 79 79 76 74 75 73 70 68 73
39 41 43 44 45 47 49 48 48 48 52 54 56 57 58 60 63 66 69 71 72 73 73 75 76 78 79 78 78 77 77 77 79 81 82 81 80 80 79 80 78 76 74
41 42 44 46 47 45 45 45 48 53 56 56 58 60 63 65 68 71 73 74 73 74 77 79 79 78 78 79 79 80 81 80 81 82 84 85 84 87 87 86 88 89 86
42 42 43 43 43 45 48 49 53 56 58 61 62 65 68 71 72 75 77 76 75 78 82 81 80 81 81 83 84 85 87 87 85 86 90 92 89 89 83 79 75 73 76
40 40 40 44 43 47 51 52 55 58 61 63 65 68 70 72 73 77 81 83 84 85 91 86 84 83 81 82 88 92 93 93 87 80 77 75 69 59 48 46 49 50 54
39 40 41 44 47 50 53 57 58 60 65 69 73 75 75 75 77 77 82 83 84 93 91 87 85 82 83 86 83 77 72 68 63 59 53 45 42 42 47 47 48 53 44
40 43 45 47 48 52 56 59 63 67 71 74 75 76 79 80 82 85 82 85 92 93 92 88 84 80 74 68 64 56 51 50 48 46 45 48 47 47 48 53 51 56 52
41 45 47 51 54 58 60 64 69 74 78 79 80 79 80 81 83 85 99 94 94 91 88 83 75 66 57 50 49 48 47 47 47 47 47 46 48 48 49 47 47 49 51
44 46 48 52 58 63 66 71 76 79 81 80 79 77 80 81 88 94 95 93 90 84 77 66 60 52 48 49 50 50 48 47 48 48 48 49 49 49 49 48 49 51 53
46 49 54 59 62 68 74 78 81 81 80 78 76 80 84 87 88 90 91 89 82 73 64 55 49 48 50 49 48 49 49 49 49 49 48 48 48 47 45 45 44 45 45
50 55 59 63 69 73 77 79 79 78 77 78 79 82 84 86 87 87 84 76 68 61 54 50 50 51 51 52 51 53 52 53 53 53 53 52 51 49 48 46 43 42 42
54 59 63 69 75 79 81 82 79 80 81 82 83 85 85 84 83 80 73 65 61 52 50 51 52 53 55 56 55 55 53 52 50 50 51 52 53 52 50 48 46 44 43
60 66 72 77 80 81 81 82 83 83 84 86 85 82 84 82 78 71 64 62 53 50 51 52 53 57 58 56 53 52 51 49 48 48 48 48 47 48 49 48 46 45 44
68 73 77 78 78 78 80 82 83 84 85 86 84 83 81 77 70 64 62 55 50 50 52 54 58 59 57 55 50 49 48 46 45 45 44 43 43 44 43 42 43 43 42
74 78 80 80 80 80 81 83 85 85 84 82 80 79 76 70 65 63 56 50 48 50 51 56 58 56 51 50 48 46 42 39 39 40 40 40 37 36 36 35 35 36 35
78 80 82 82 82 82 83 84 83 81 80 81 78 73 70 68 62 54 47 46 47 48 52 56 55 49 48 49 47 44 38 35 35 37 36 35 32 29 27 26 26 24 27
83 83 83 83 83 83 83 82 81 80 78 77 75 72 69 62 49 41 44 45 46 48 53 54 48 47 47 46 44 43 39 37 35 33 28 27 24 22 19 18 18 18 18
82 81 82 83 83 83 83 82 80 76 74 74 73 65 54 45 36 41 41 44 45 49 52 50 45 47 47 45 43 39 34 30 26 19 16 13 9 6 9 12 14 14 13
80 81 82 84 84 83 83 81 77 75 74 69 58 48 35 29 35 35 39 41 43 48 49 46 44 44 43 40 36 30 25 19 12 7 4 3 2 2 5 9 13 14 9
80 83 85 84 84 83 78 77 75 74 65 52 39 27 24 28 30 35 38 39 43 47 46 43 42 41 37 35 29 21 13 10 8 6 4 4 4 2 3 10 13 10 9
83 83 83 82 80 77 73 73 69 60 44 30 20 22 23 24 30 35 36 39 42 44 44 41 40 36 32 28 21 13 11 10 9 7 7 7 6 6 10 12 10 9 11
82 82 81 77 73 70 69 63 53 36 25 18 22 20 22 27 33 36 37 38 41 41 40 39 38 34 29 23 13 9 10 11 9 7 7 8 9 9 11 10 9 9 11
Wind_Direction
289 297 297 298 301 301 301 300 301 298 300 303 303 303 303 304 305 305 304 303 302 300 300 300 298 296 297 297 297 296 293 292 293 289 288 287 287 284 283 283 279 276 274
294 295 299 300 299 297 295 295 296 297 300 300 299 299 301 301 302 302 302 301 300 299 299 299 298 298 297 297 296 295 293 292 292 291 289 285 282 283 279 275 273 274 274
292 297 297 296 293 292 291 293 294 296 297 297 297 298 299 300 300 299 298 297 299 300 300 299 298 297 297 295 296 295 294 292 290 291 288 285 283 281 281 281 274 273 271
293 293 291 288 288 288 290 291 293 296 297 296 296 297 298 298 297 297 298 299 297 299 300 300 299 298 297 296 295 294 292 292 289 286 286 284 282 280 278 277 279 275 275
287 287 289 288 287 288 293 296 295 295 295 296 298 300 299 297 297 298 299 300 301 301 300 300 299 298 297 296 295 293 292 290 289 287 283 283 283 279 277 276 274 274 271
288 288 287 288 291 293 294 292 294 296 297 298 298 298 297 298 300 300 300 300 299 299 301 302 302 301 299 297 295 294 292 290 289 285 284 284 280 278 275 274 271 270 271
287 289 292 294 293 292 292 295 297 299 300 302 302 301 301 301 301 299 299 300 301 304 304 304 301 299 298 296 294 293 290 287 285 281 279 280 279 277 275 274 274 268 267
292 294 294 292 295 298 301 303 302 303 304 303 304 305 304 303 302 302 302 301 301 306 308 304 301 300 299 297 294 292 290 287 285 281 279 279 278 284 277 273 270 265 261
291 290 293 296 300 303 303 303 304 305 307 309 308 305 303 302 302 301 301 301 300 304 309 306 303 300 297 291 287 286 285 286 288 287 283 282 280 277 275 273 269 266 262
297 298 299 301 303 304 306 309 310 310 308 306 305 304 303 300 301 307 309 305 302 303 306 305 304 301 295 292 291 291 290 289 290 287 284 280 276 274 263 258 261 254 259
299 298 301 304 304 308 309 308 308 308 307 307 307 305 304 305 303 305 308 305 303 307 308 308 304 300 298 296 296 295 292 291 288 285 282 278 276 274 266 265 264 266 263
301 305 308 310 309 308 309 309 308 310 310 310 309 308 309 308 302 299 307 310 310 311 311 308 306 304 302 300 296 295 293 290 286 284 283 281 278 274 273 270 267 265 267
307 309 308 307 308 308 309 311 310 309 309 310 311 309 302 300 305 309 308 310 313 313 309 308 306 305 303 302 299 295 292 290 286 284 283 281 279 276 274 273 267 264 262
307 307 308 309 309 311 312 311 310 310 311 313 310 307 308 308 307 309 312 315 315 312 311 308 306 305 304 301 301 297 294 291 287 285 282 280 278 276 275 273 271 269 265
307 310 310 310 310 310 310 310 311 314 315 313 312 312 310 310 313 316 317 315 314 313 310 309 309 307 305 304 301 298 294 290 285 282 279 277 275 273 271 271 271 270 267
310 309 310 311 312 312 312 314 316 315 314 314 313 313 314 315 316 317 316 315 316 312 311 311 311 310 308 308 305 302 298 293 289 284 279 276 273 270 268 267 267 269 267
313 314 314 315 314 316 316 316 316 314 314 314 314 315 316 316 317 317 316 317 314 313 312 313 312 312 311 310 307 303 299 296 293 288 283 278 275 271 267 264 262 263 266
314 314 315 316 315 315 316 315 314 315 315 316 316 317 315 316 316 315 315 315 313 313 315 315 316 316 314 312 309 305 302 298 295 290 287 282 277 273 269 264 261 260 262
314 316 316 315 316 316 315 315 316 316 315 315 315 314 314 315 315 315 313 311 312 315 316 318 318 318 315 313 313 311 309 305 300 294 287 283 280 275 270 263 259 257 259
315 314 315 316 317 316 316 316 315 315 314 312 314 313 314 314 315 313 311 312 315 316 319 320 321 318 317 315 314 311 310 307 303 299 285 282 281 279 269 255 249 246 249
314 315 316 317 316 316 316 316 315 314 314 313 314 314 314 315 315 313 313 315 317 319 322 324 322 320 319 316 314 312 309 308 304 300 286 280 280 273 256 236 221 221 233
314 315 316 316 317 316 315 315 314 315 313 312 312 311 312 312 313 312 316 318 320 323 326 327 324 324 322 320 320 317 314 312 310 303 296 288 271 232 211 198 198 203 208
315 316 316 316 316 316 315 315 316 315 314 313 310 310 312 312 312 317 319 321 324 327 328 330 328 328 327 330 328 325 322 324 332 351 42 39 357 301 159 165 169 168 175
315 315 315 316 316 316 317 317 317 315 316 312 312 314 315 316 322 323 325 326 328 331 333 334 333 333 336 337 335 338 356 8 12 19 24 6 310 293 151 144 150 160 171
315 316 316 316 316 318 319 318 317 318 319 320 317 316 317 324 326 329 331 330 333 335 336 337 338 338 341 341 343 358 14 20 22 29 28 40 65 93 136 140 143 159 151
316 317 316 317 319 319 318 319 321 324 325 322 322 320 323 326 332 334 333 335 338 338 338 337 342 342 344 344 347 7 16 15 17 26 44 81 98 117 131 133 144 150 152
Height
5806 5805 5803 5801 5797 5793 5789 5784 5781 5776 5772 5768 5764 5760 5755 5749 5744 5739 5735 5730 5726 5722 5718 5713 5708 5704 5699 5694 5690 5686 5683 5680 5675 5672 5671 5670 5667 5664 5663 5662 5661 5659 5658
5803 5800 5798 5794 5791 5787 5783 5779 5774 5770 5766 5761 5756 5752 5746 5740 5735 5729 5725 5720 5716 5710 5705 5699 5694 5689 5684 5680 5675 5670 5667 5664 5660 5654 5650 5651 5651 5647 5643 5642 5644 5643 5640
5797 5795 5792 5788 5784 5780 5776 5772 5768 5764 5759 5754 5748 5743 5737 5731 5726 5721 5716 5710 5704 5698 5692 5685 5680 5675 5669 5664 5659 5653 5649 5646 5644 5635 5629 5628 5628 5627 5626 5620 5617 5617 5621
5792 5788 5785 5781 5777 5773 5769 5765 5760 5756 5751 5745 5739 5734 5728 5722 5715 5709 5703 5697 5690 5685 5678 5672 5665 5659 5653 5647 5641 5635 5630 5623 5623 5617 5611 5606 5607 5606 5605 5606 5599 5597 5596
5786 5782 5778 5773 5770 5766 5761 5756 5751 5746 5741 5734 5729 5723 5716 5709 5702 5696 5690 5683 5677 5669 5662 5654 5648 5640 5633 5627 5621 5615 5610 5603 5597 5594 5589 5585 5584 5579 5580 5581 5585 5579 5579
5779 5774 5770 5765 5762 5758 5752 5747 5741 5735 5730 5724 5717 5710 5703 5697 5690 5683 5674 5667 5660 5653 5645 5637 5628 5620 5612 5605 5598 5593 5587 5582 5574 5568 5563 5559 5557 5554 5553 5552 5557 5558 5554
5770 5766 5762 5756 5752 5747 5742 5738 5732 5725 5716 5711 5705 5697 5690 5683 5675 5667 5659 5651 5643 5634 5626 5617 5607 5599 5590 5580 5574 5570 5561 5558 5548 5541 5536 5531 5527 5524 5523 5522 5523 5526 5526
5763 5758 5753 5747 5742 5737 5731 5727 5720 5713 5706 5699 5691 5683 5675 5668 5659 5650 5642 5633 5625 5615 5606 5596 5585 5575 5566 5555 5547 5539 5530 5522 5520 5514 5507 5501 5497 5494 5491 5491 5492 5493 5496
5753 5748 5743 5737 5734 5728 5721 5716 5710 5703 5694 5686 5678 5669 5661 5652 5643 5634 5625 5615 5602 5591 5581 5570 5560 5550 5542 5530 5519 5510 5502 5494 5487 5482 5478 5474 5470 5468 5469 5469 5470 5471 5473
5744 5739 5734 5729 5724 5717 5711 5704 5695 5687 5680 5672 5662 5653 5643 5633 5623 5613 5602 5591 5580 5569 5559 5547 5534 5523 5511 5500 5491 5483 5475 5468 5463 5458 5456 5454 5452 5452 5454 5455 5456 5457 5458
5734 5729 5725 5720 5714 5707 5699 5691 5683 5675 5665 5655 5644 5634 5623 5614 5602 5590 5579 5569 5557 5544 5529 5517 5505 5494 5484 5475 5467 5461 5456 5451 5448 5444 5442 5441 5439 5439 5439 5439 5439 5439 5441
5726 5721 5714 5707 5699 5693 5686 5678 5668 5658 5647 5636 5626 5614 5603 5592 5579 5568 5555 5544 5532 5518 5503 5489 5479 5470 5463 5457 5451 5446 5443 5438 5435 5432 5429 5428 5426 5425 5424 5424 5425 5424 5425
5714 5710 5704 5697 5689 5680 5673 5663 5653 5642 5631 5619 5607 5595 5581 5570 5558 5546 5533 5522 5510 5495 5482 5471 5461 5455 5449 5444 5438 5433 5428 5424 5420 5417 5414 5413 5411 5410 5409 5409 5409 5409 5410
5706 5701 5693 5685 5677 5668 5658 5647 5635 5623 5611 5599 5587 5575 5563 5550 5539 5527 5512 5498 5486 5474 5464 5456 5449 5442 5436 5430 5426 5419 5414 5410 5405 5402 5399 5397 5396 5394 5394 5393 5393 5393 5393
5696 5689 5682 5674 5664 5653 5641 5629 5617 5604 5592 5580 5568 5556 5545 5532 5518 5505 5492 5480 5469 5459 5450 5443 5436 5429 5423 5417 5412 5404 5399 5393 5389 5385 5383 5381 5379 5379 5378 5378 5379 5378 5379
5688 5680 5670 5659 5647 5635 5624 5610 5596 5584 5574 5563 5551 5539 5525 5512 5499 5487 5476 5465 5455 5446 5439 5431 5424 5416 5408 5402 5394 5387 5381 5375 5371 5367 5364 5362 5361 5361 5362 5363 5364 5365 5366
5674 5665 5654 5642 5630 5616 5603 5592 5581 5568 5556 5543 5532 5520 5506 5494 5483 5471 5461 5452 5443 5435 5427 5419 5411 5403 5393 5386 5378 5371 5364 5359 5353 5349 5345 5343 5343 5342 5343 5346 5349 5351 5353
5660 5650 5639 5627 5614 5602 5590 5577 5564 5551 5536 5523 5511 5502 5490 5479 5468 5458 5448 5440 5432 5424 5416 5407 5399 5389 5378 5370 5363 5356 5349 5343 5337 5332 5328 5326 5326 5325 5327 5330 5333 5336 5339
5646 5634 5622 5611 5598 5586 5573 5558 5545 5533 5520 5507 5498 5484 5473 5464 5454 5445 5436 5429 5422 5415 5406 5396 5387 5376 5366 5356 5349 5342 5336 5330 5324 5318 5314 5311 5311 5312 5314 5316 5320 5324 5328
5628 5617 5605 5593 5580 5568 5555 5543 5530 5516 5504 5490 5481 5470 5460 5450 5441 5432 5426 5420 5413 5405 5397 5386 5375 5364 5355 5346 5338 5330 5324 5319 5313 5307 5302 5300 5300 5301 5302 5304 5309 5314 5318
5611 5598 5586 5575 5563 5550 5537 5525 5513 5500 5487 5473 5463 5454 5444 5435 5429 5423 5417 5411 5404 5396 5387 5377 5366 5355 5345 5337 5328 5320 5314 5308 5302 5296 5292 5291 5291 5292 5293 5297 5302 5307 5311
5595 5583 5570 5559 5547 5534 5519 5508 5497 5485 5471 5459 5449 5440 5432 5426 5421 5416 5410 5403 5395 5386 5377 5367 5356 5346 5336 5327 5319 5310 5304 5298 5293 5288 5286 5286 5286 5287 5289 5293 5298 5303 5308
5579 5566 5554 5543 5531 5516 5502 5489 5478 5465 5455 5444 5434 5426 5422 5418 5414 5409 5404 5397 5389 5380 5369 5359 5349 5339 5329 5320 5311 5303 5298 5293 5289 5287 5286 5286 5286 5287 5289 5292 5296 5301 5305
5563 5551 5538 5525 5512 5498 5486 5471 5460 5448 5437 5428 5422 5418 5415 5413 5409 5403 5397 5389 5382 5372 5362 5353 5343 5333 5324 5316 5308 5302 5297 5294 5292 5290 5289 5288 5288 5288 5289 5292 5296 5300 5304
5546 5533 5520 5507 5494 5481 5469 5457 5445 5434 5425 5419 5416 5414 5411 5408 5404 5397 5391 5383 5376 5366 5356 5347 5338 5330 5323 5315 5309 5304 5301 5298 5295 5293 5292 5290 5290 5290 5292 5294 5297 5300 5303
5530 5517 5504 5490 5479 5467 5455 5444 5433 5425 5420 5417 5413 5410 5407 5404 5399 5392 5385 5379 5370 5361 5353 5344 5336 5328 5321 5315 5310 5307 5304 5301 5299 5297 5295 5294 5294 5295 5295 5297 5299 5301 5302